When you browse on this site, cookies collect data to enhance your experience and personalize the content and advertising you see.
Visit our Privacy Policy to learn more. By continuing to use the site, you agree to this use of cookies and data.
  • In France
  • List of Countries
  • For 7 days
  • Water Temperature
  • Satellite Maps
  • Weather Map
  • Weather Widgets
  • user-avatar
    Login

    Hourly Weather Bugojno

    Today, 22 March, Friday

    Time Temperature Precipitation Wind Pressure Humidity
    00:00 +3°C° 0 mm 1 mps 720 mmHg 87%
    01:00 +3°C° 0 mm 1 mps 720 mmHg 87%
    02:00 +3°C° 0 mm 1 mps 720 mmHg 86%
    03:00 +3°C° 0 mm 1 mps 719 mmHg 85%
    04:00 +3°C° 0 mm 1 mps 719 mmHg 84%
    05:00 +3°C° 0 mm 1 mps 720 mmHg 81%
    06:00 +4°C° 0 mm 1 mps 720 mmHg 77%
    07:00 +5°C° 0 mm 1 mps 720 mmHg 73%
    08:00 +7°C° 0 mm 1 mps 720 mmHg 66%
    09:00 +8°C° 0 mm 2 mps 720 mmHg 59%
    10:00 +10°C° 0 mm 2 mps 720 mmHg 52%
    11:00 +12°C° 0 mm 2 mps 720 mmHg 50%
    12:00 +13°C° 0 mm 2 mps 720 mmHg 47%
    13:00 +14°C° 0 mm 2 mps 720 mmHg 45%
    14:00 +14°C° 0 mm 2 mps 719 mmHg 48%
    15:00 +14°C° 0 mm 2 mps 719 mmHg 51%
    16:00 +13°C° 0 mm 2 mps 719 mmHg 54%
    17:00 +10°C° 0 mm 2 mps 718 mmHg 63%
    18:00 +8°C° 0 mm 2 mps 718 mmHg 71%
    19:00 +7°C° 0 mm 1 mps 718 mmHg 79%
    20:00 +6°C° 0 mm 1 mps 718 mmHg 80%
    21:00 +6°C° 0 mm 1 mps 718 mmHg 82%
    22:00 +5°C° 0 mm 1 mps 718 mmHg 83%
    23:00 +5°C° 0 mm 1 mps 718 mmHg 83%

    Tomorrow, 23 March, Saturday

    Time Temperature Precipitation Wind Pressure Humidity
    00:00 +5°C° 0 mm 1 mps 718 mmHg 83%
    01:00 +5°C° 0 mm 1 mps 717 mmHg 82%
    02:00 +4°C° 0 mm 1 mps 717 mmHg 82%
    03:00 +4°C° 0 mm 1 mps 717 mmHg 83%
    04:00 +4°C° 0 mm 1 mps 717 mmHg 83%
    05:00 +5°C° 0 mm 1 mps 717 mmHg 81%
    06:00 +6°C° 0 mm 1 mps 717 mmHg 79%
    07:00 +6°C° 0 mm 1 mps 717 mmHg 77%
    08:00 +8°C° 0 mm 1 mps 717 mmHg 70%
    09:00 +10°C° 0 mm 2 mps 717 mmHg 63%
    10:00 +13°C° 0 mm 2 mps 718 mmHg 56%
    11:00 +14°C° 0 mm 2 mps 717 mmHg 56%
    12:00 +15°C° 0 mm 2 mps 717 mmHg 56%
    13:00 +16°C° 0 mm 3 mps 717 mmHg 55%
    14:00 +16°C° 0 mm 2 mps 717 mmHg 58%
    15:00 +15°C° 0 mm 2 mps 717 mmHg 60%
    16:00 +15°C° 0 mm 2 mps 716 mmHg 63%
    17:00 +13°C° 0 mm 2 mps 716 mmHg 72%
    18:00 +10°C° 0 mm 2 mps 716 mmHg 80%
    19:00 +9°C° 0 mm 1 mps 716 mmHg 89%
    20:00 +8°C° 0 mm 1 mps 716 mmHg 90%
    21:00 +8°C° 0 mm 1 mps 716 mmHg 92%
    22:00 +7°C° 0 mm 1 mps 716 mmHg 93%
    23:00 +7°C° 0 mm 1 mps 716 mmHg 93%

    Day after tomorrow, 24 March, Sunday

    Time Temperature Precipitation Wind Pressure Humidity
    00:00 +7°C° 0 mm 1 mps 716 mmHg 93%
    01:00 +6°C° 0 mm 1 mps 716 mmHg 93%
    02:00 +6°C° 0 mm 1 mps 716 mmHg 92%
    03:00 +6°C° 0 mm 1 mps 716 mmHg 91%
    04:00 +6°C° 0 mm 1 mps 715 mmHg 91%
    05:00 +6°C° 0 mm 1 mps 715 mmHg 88%
    06:00 +7°C° 0 mm 1 mps 716 mmHg 85%
    07:00 +8°C° 0 mm 1 mps 716 mmHg 82%
    08:00 +10°C° 0 mm 1 mps 716 mmHg 69%
    09:00 +13°C° 0 mm 1 mps 716 mmHg 57%
    10:00 +15°C° 0 mm 1 mps 717 mmHg 45%
    11:00 +16°C° 0 mm 1 mps 716 mmHg 41%
    12:00 +18°C° 0 mm 1 mps 716 mmHg 38%
    13:00 +20°C° 0 mm 1 mps 716 mmHg 34%
    14:00 +19°C° 0 mm 1 mps 715 mmHg 35%
    15:00 +19°C° 0 mm 1 mps 715 mmHg 35%
    16:00 +19°C° 0 mm 1 mps 715 mmHg 36%
    17:00 +16°C° 0 mm 1 mps 714 mmHg 44%
    18:00 +13°C° 0 mm 1 mps 714 mmHg 51%
    19:00 +10°C° 0 mm 0 mps 714 mmHg 59%
    20:00 +9°C° 0 mm 0 mps 714 mmHg 61%
    21:00 +9°C° 0 mm 0 mps 714 mmHg 64%
    22:00 +8°C° 0 mm 0 mps 714 mmHg 66%
    23:00 +8°C° 0 mm 0 mps 714 mmHg 68%

    25 March, Monday

    Time Temperature Precipitation Wind Pressure Humidity
    00:00 +7°C° 0 mm 0 mps 714 mmHg 70%
    01:00 +7°C° 0 mm 0 mps 714 mmHg 72%
    02:00 +8°C° 0 mm 1 mps 713 mmHg 74%
    03:00 +7°C° 0 mm 1 mps 713 mmHg 77%
    04:00 +7°C° 0 mm 1 mps 713 mmHg 79%
    05:00 +8°C° 0 mm 1 mps 713 mmHg 78%
    06:00 +8°C° 0 mm 1 mps 713 mmHg 77%
    07:00 +9°C° 0 mm 1 mps 713 mmHg 76%
    08:00 +11°C° 0 mm 1 mps 713 mmHg 70%
    09:00 +13°C° 0 mm 1 mps 714 mmHg 64%
    10:00 +15°C° 0 mm 2 mps 714 mmHg 58%
    11:00 +16°C° 0 mm 2 mps 714 mmHg 56%
    12:00 +16°C° 0 mm 1 mps 713 mmHg 53%
    13:00 +18°C° 0 mm 1 mps 713 mmHg 51%
    14:00 +18°C° 0.1 mm 1 mps 712 mmHg 55%
    15:00 +16°C° 0.1 mm 1 mps 712 mmHg 59%
    16:00 +15°C° 0.1 mm 1 mps 711 mmHg 64%
    17:00 +14°C° 0.5 mm 1 mps 711 mmHg 73%
    18:00 +12°C° 0.5 mm 1 mps 711 mmHg 81%
    19:00 +11°C° 0.5 mm 1 mps 711 mmHg 90%
    20:00 +9°C° 0.6 mm 2 mps 711 mmHg 92%
    21:00 +9°C° 0.6 mm 2 mps 711 mmHg 93%
    22:00 +8°C° 0.6 mm 2 mps 712 mmHg 95%
    23:00 +7°C° 1.3 mm 3 mps 712 mmHg 93%

    26 March, Tuesday

    Time Temperature Precipitation Wind Pressure Humidity
    00:00 +5°C° 1.3 mm 4 mps 712 mmHg 92%
    01:00 +3°C° 1.3 mm 5 mps 713 mmHg 91%
    02:00 +3°C° 0.7 mm 4 mps 713 mmHg 90%
    03:00 +1°C° 0.7 mm 4 mps 713 mmHg 90%
    04:00 0°C° 0.7 mm 4 mps 713 mmHg 89%
    05:00 0°C° 0.3 mm 4 mps 713 mmHg 89%
    06:00 0°C° 0.3 mm 4 mps 714 mmHg 88%
    07:00 -1°C° 0.3 mm 4 mps 714 mmHg 88%
    08:00 -1°C° 0.3 mm 5 mps 714 mmHg 87%
    09:00 0°C° 0.3 mm 5 mps 715 mmHg 86%
    10:00 0°C° 0.3 mm 5 mps 715 mmHg 85%
    11:00 -1°C° 0.3 mm 6 mps 715 mmHg 83%
    12:00 -1°C° 0.3 mm 7 mps 715 mmHg 80%
    13:00 -1°C° 0.3 mm 7 mps 714 mmHg 78%
    14:00 -1°C° 0.4 mm 8 mps 714 mmHg 79%
    15:00 -1°C° 0.4 mm 8 mps 714 mmHg 81%
    16:00 -1°C° 0.4 mm 9 mps 714 mmHg 82%
    17:00 -1°C° 0.3 mm 8 mps 714 mmHg 82%
    18:00 -1°C° 0.3 mm 8 mps 715 mmHg 82%
    19:00 -2°C° 0.3 mm 8 mps 715 mmHg 83%
    20:00 -2°C° 0.2 mm 8 mps 716 mmHg 85%
    21:00 -2°C° 0.2 mm 8 mps 716 mmHg 87%
    22:00 -2°C° 0.2 mm 7 mps 717 mmHg 89%
    23:00 -2°C° 0.1 mm 7 mps 717 mmHg 89%

    27 March, Wednesday

    Time Temperature Precipitation Wind Pressure Humidity
    00:00 -2°C° 0.1 mm 7 mps 717 mmHg 90%
    01:00 -3°C° 0.1 mm 7 mps 717 mmHg 91%
    02:00 -3°C° 0.1 mm 7 mps 717 mmHg 91%
    03:00 -3°C° 0.1 mm 6 mps 717 mmHg 91%
    04:00 -4°C° 0.1 mm 6 mps 717 mmHg 92%
    05:00 -3°C° 0.1 mm 6 mps 717 mmHg 91%
    06:00 -2°C° 0.1 mm 5 mps 718 mmHg 90%
    07:00 -2°C° 0.1 mm 5 mps 718 mmHg 89%
    08:00 -1°C° 0 mm 5 mps 718 mmHg 87%
    09:00 0°C° 0 mm 5 mps 719 mmHg 84%
    10:00 +1°C° 0 mm 4 mps 719 mmHg 82%
    11:00 +3°C° 0 mm 4 mps 719 mmHg 81%
    12:00 +3°C° 0 mm 4 mps 719 mmHg 79%
    13:00 +4°C° 0 mm 4 mps 718 mmHg 78%
    14:00 +4°C° 0 mm 4 mps 718 mmHg 78%
    15:00 +4°C° 0 mm 4 mps 718 mmHg 77%
    16:00 +4°C° 0 mm 4 mps 718 mmHg 77%
    17:00 +3°C° 0 mm 3 mps 718 mmHg 79%
    18:00 +2°C° 0 mm 3 mps 718 mmHg 82%
    19:00 +2°C° 0 mm 2 mps 719 mmHg 85%
    20:00 +1°C° 0 mm 2 mps 719 mmHg 84%
    21:00 -1°C° 0 mm 2 mps 719 mmHg 83%
    22:00 +1°C° 0 mm 1 mps 719 mmHg 82%
    23:00 +1°C° 0 mm 1 mps 719 mmHg 80%
    Show more